TimeCEST,TemperatureF,Dew PointF,Humidity,Sea Level PressureIn,VisibilityMPH,Wind Direction,Wind SpeedMPH,Gust SpeedMPH,PrecipitationIn,Events,Conditions,WindDirDegrees,DateUTC
12:20 AM,60.8,48.2,63,29.77,6.2,West,5.8,-,N/A,,Partly Cloudy,270,2013-05-29 22:20:00
12:50 AM,62.6,50.0,63,29.77,6.2,West,10.4,-,N/A,,Mostly Cloudy,270,2013-05-29 22:50:00
1:20 AM,62.6,48.2,59,29.77,6.2,WNW,12.7,-,N/A,,Mostly Cloudy,290,2013-05-29 23:20:00
1:50 AM,59.0,46.4,63,29.77,6.2,WNW,16.1,-,N/A,,Mostly Cloudy,300,2013-05-29 23:50:00
2:20 AM,59.0,48.2,67,29.77,6.2,WSW,4.6,-,N/A,,Mostly Cloudy,240,2013-05-30 00:20:00
2:50 AM,57.2,50.0,77,29.77,6.2,Variable,2.3,-,N/A,,Mostly Cloudy,0,2013-05-30 00:50:00
3:20 AM,57.2,50.0,77,29.74,6.2,Variable,2.3,-,N/A,,Mostly Cloudy,0,2013-05-30 01:20:00
3:50 AM,57.2,51.8,82,29.74,6.2,Variable,2.3,-,N/A,,Mostly Cloudy,0,2013-05-30 01:50:00
4:20 AM,57.2,51.8,82,29.74,6.2,Calm,Calm,-,N/A,,Mostly Cloudy,0,2013-05-30 02:20:00
4:50 AM,59.0,51.8,77,29.74,6.2,Variable,2.3,-,N/A,,Mostly Cloudy,0,2013-05-30 02:50:00
5:20 AM,55.4,51.8,88,29.74,6.2,East,3.5,-,N/A,,Mostly Cloudy,80,2013-05-30 03:20:00
5:50 AM,57.2,51.8,82,29.74,6.2,NW,6.9,-,N/A,Rain,Light Rain,320,2013-05-30 03:50:00
6:20 AM,55.4,50.0,82,29.74,6.2,North,5.8,-,N/A,,Mostly Cloudy,10,2013-05-30 04:20:00
6:50 AM,57.2,51.8,82,29.77,6.2,ENE,3.5,-,N/A,,Mostly Cloudy,60,2013-05-30 04:50:00
7:20 AM,55.4,50.0,82,29.77,6.2,Variable,1.2,-,N/A,Rain,Light Rain,0,2013-05-30 05:20:00
7:50 AM,57.2,50.0,77,29.77,6.2,NNW,4.6,-,N/A,,Mostly Cloudy,340,2013-05-30 05:50:00
8:20 AM,57.2,50.0,77,29.77,6.2,Variable,2.3,-,N/A,,Scattered Clouds,0,2013-05-30 06:20:00
8:50 AM,60.8,51.8,72,29.77,6.2,Variable,2.3,-,N/A,,Partly Cloudy,0,2013-05-30 06:50:00
9:20 AM,60.8,51.8,72,29.77,6.2,West,4.6,-,N/A,,Partly Cloudy,280,2013-05-30 07:20:00
9:50 AM,62.6,48.2,59,29.77,6.2,WSW,5.8,-,N/A,,Partly Cloudy,240,2013-05-30 07:50:00
10:20 AM,62.6,48.2,59,29.77,6.2,SW,6.9,-,N/A,,Mostly Cloudy,230,2013-05-30 08:20:00
10:50 AM,62.6,44.6,52,29.77,6.2,WSW,11.5,-,N/A,,Mostly Cloudy,250,2013-05-30 08:50:00
11:20 AM,62.6,48.2,59,29.80,6.2,West,12.7,-,N/A,,Mostly Cloudy,260,2013-05-30 09:20:00
11:50 AM,64.4,50.0,59,29.80,6.2,SW,10.4,-,N/A,,Mostly Cloudy,220,2013-05-30 09:50:00
12:20 PM,64.4,50.0,59,29.80,6.2,SSW,10.4,-,N/A,,Mostly Cloudy,200,2013-05-30 10:20:00
12:50 PM,62.6,48.2,59,29.80,6.2,SW,10.4,-,N/A,,Scattered Clouds,230,2013-05-30 10:50:00
1:20 PM,62.6,50.0,63,29.80,6.2,SSW,10.4,-,N/A,,Scattered Clouds,210,2013-05-30 11:20:00
1:50 PM,64.4,51.8,64,29.80,6.2,SSW,9.2,-,N/A,,Scattered Clouds,200,2013-05-30 11:50:00
2:20 PM,64.4,46.4,52,29.80,6.2,West,11.5,-,N/A,,Scattered Clouds,260,2013-05-30 12:20:00
2:50 PM,66.2,44.6,46,29.80,6.2,WSW,13.8,-,N/A,,Scattered Clouds,250,2013-05-30 12:50:00
3:20 PM,64.4,46.4,52,29.80,6.2,WSW,16.1,-,N/A,,Scattered Clouds,240,2013-05-30 13:20:00
3:50 PM,62.6,46.4,55,29.80,6.2,SW,11.5,-,N/A,,Scattered Clouds,230,2013-05-30 13:50:00
4:20 PM,64.4,48.2,56,29.80,6.2,SW,9.2,-,N/A,,Scattered Clouds,220,2013-05-30 14:20:00
4:50 PM,62.6,46.4,55,-9999,6.2,SSW,12.7,-,N/A,,Scattered Clouds,200,2013-05-30 14:50:00
5:00 PM,62.6,46.4,55,29.80,6.2,SSW,12.7,-,N/A,,Scattered Clouds,200,2013-05-30 15:00:00
5:20 PM,62.6,48.2,59,29.80,6.2,SSW,11.5,-,N/A,,Scattered Clouds,200,2013-05-30 15:20:00
5:50 PM,64.4,44.6,49,29.77,6.2,WSW,16.1,-,N/A,,Scattered Clouds,240,2013-05-30 15:50:00
6:20 PM,62.6,46.4,55,29.77,6.2,WSW,11.5,-,N/A,,Scattered Clouds,250,2013-05-30 16:20:00
6:50 PM,62.6,46.4,55,29.80,6.2,West,10.4,-,N/A,,Scattered Clouds,260,2013-05-30 16:50:00
7:20 PM,62.6,48.2,59,29.80,5.0,WSW,12.7,-,N/A,Rain-Thunderstorm,Thunderstorms and Rain,240,2013-05-30 17:20:00
7:50 PM,59.0,48.2,67,29.80,5.0,SW,8.1,-,N/A,Rain-Thunderstorm,Light Thunderstorms and Rain,220,2013-05-30 17:50:00
8:20 PM,57.2,48.2,72,29.80,6.2,SSW,4.6,-,N/A,,Mostly Cloudy,200,2013-05-30 18:20:00
8:50 PM,57.2,50.0,77,29.80,4.3,SW,5.8,-,N/A,Rain-Thunderstorm,Light Thunderstorms and Rain,230,2013-05-30 18:50:00
9:20 PM,55.4,50.0,82,29.80,4.3,Variable,1.2,-,N/A,Rain-Thunderstorm,Light Thunderstorms and Rain,0,2013-05-30 19:20:00
9:50 PM,53.6,50.0,88,29.80,6.2,ESE,4.6,-,N/A,Thunderstorm,Thunderstorm,110,2013-05-30 19:50:00
10:20 PM,55.4,51.8,88,29.80,6.2,East,5.8,-,N/A,Thunderstorm,Thunderstorm,100,2013-05-30 20:20:00
10:50 PM,53.6,50.0,88,29.80,2.5,North,10.4,-,N/A,Rain-Thunderstorm,Thunderstorms and Rain,10,2013-05-30 20:50:00
11:20 PM,53.6,50.0,88,29.80,4.3,NNE,9.2,-,N/A,Rain-Thunderstorm,Thunderstorms and Rain,20,2013-05-30 21:20:00
11:50 PM,53.6,50.0,88,29.80,3.1,North,5.8,-,N/A,Rain-Thunderstorm,Thunderstorms and Rain,10,2013-05-30 21:50:00